Wind_Speed
11 13 14 19 24 26 26 31 32 43 48 49 51 52 47 46 52 67 58 56 51 53 28 32 40 30 34 38 38 33 31 39 32 29 22 21 16 23 28 24 22 30 27 25 30 22 16 28 23 26 30 23 21 18
11 14 16 20 23 22 26 27 36 43 45 45 49 47 45 48 53 63 60 51 48 48 47 19 36 36 35 33 34 34 35 33 40 33 33 21 19 22 26 32 32 29 35 34 30 31 30 24 23 24 26 23 18 19
25 21 17 17 18 22 23 31 37 41 41 45 43 39 48 48 49 54 53 47 50 49 41 34 15 32 31 31 28 29 35 31 30 34 31 30 19 34 25 39 40 34 29 34 31 32 32 31 31 31 30 24 23 15
23 30 33 32 35 34 35 36 36 36 40 39 35 44 46 40 42 47 40 38 31 42 34 43 24 37 26 29 35 36 28 32 18 16 33 26 25 30 29 35 24 34 30 34 35 32 31 31 29 31 30 24 22 18
24 27 24 22 26 26 32 35 35 36 37 37 42 41 41 42 34 31 27 33 30 33 17 39 24 7 27 28 33 35 34 33 27 24 26 34 32 26 31 32 36 36 33 30 35 29 28 23 24 24 22 21 22 20
24 26 29 29 29 31 33 35 38 39 37 37 38 34 31 35 39 34 35 39 42 39 5 18 37 16 21 23 24 28 33 34 31 31 27 30 30 21 34 45 39 26 29 29 28 24 26 26 25 21 21 20 22 20
31 27 27 29 27 27 32 37 37 36 34 31 33 32 31 33 33 32 35 39 33 21 12 18 30 17 22 21 21 23 29 36 39 34 32 33 31 32 36 37 30 32 34 27 24 23 32 30 25 22 22 21 22 23
29 32 33 31 26 24 27 27 30 38 37 33 30 28 34 26 26 15 15 29 9 10 18 9 12 22 25 23 22 22 24 29 34 33 36 38 36 33 35 40 39 34 33 24 22 27 28 24 26 24 23 23 25 25
30 31 32 31 29 27 27 30 34 33 31 31 30 30 31 29 25 18 20 20 16 11 9 9 9 12 17 15 18 22 22 28 32 38 40 34 34 34 33 29 27 25 34 32 28 31 28 27 27 26 26 24 25 26
30 31 31 32 32 27 26 30 34 33 28 27 27 25 24 21 22 18 18 12 14 21 24 17 12 7 14 12 9 13 10 21 28 38 30 44 48 45 37 25 15 17 19 23 28 31 30 26 27 25 29 28 27 28
28 28 31 31 33 34 34 32 31 31 29 27 24 19 22 24 23 20 18 12 9 11 28 20 14 10 9 5 2 1 5 6 7 19 30 22 31 40 45 35 35 33 32 32 30 31 31 27 26 26 29 31 31 32
24 24 25 30 32 33 36 41 41 35 27 23 21 27 33 30 16 11 14 12 11 17 15 22 22 21 20 13 3 3 7 8 6 15 21 16 24 24 25 28 29 31 32 26 29 30 24 25 26 28 26 25 27 30
20 23 24 26 26 25 29 40 25 26 32 26 27 24 17 15 12 11 22 17 14 27 30 20 13 14 19 12 7 5 4 6 4 9 7 9 16 18 22 24 30 29 29 28 30 21 25 27 27 25 25 28 29 29
21 24 25 27 27 27 26 25 39 31 25 17 12 13 6 6 4 6 10 14 13 18 17 16 15 11 11 14 7 5 5 5 2 2 5 6 5 15 12 15 14 12 9 14 18 23 28 28 23 21 21 20 20 22
22 22 23 26 27 27 27 27 23 9 10 3 4 6 9 12 13 14 13 15 15 18 21 20 16 11 11 6 5 5 3 4 5 5 9 5 7 12 11 10 11 10 11 15 15 14 12 10 10 13 16 17 21 23
31 32 31 31 33 30 26 19 8 8 11 7 9 12 14 11 13 14 15 16 16 17 15 9 7 6 5 5 4 5 3 4 3 4 4 1 3 7 7 7 8 8 7 8 7 8 9 8 9 10 14 16 16 14
21 21 22 24 22 23 15 10 6 4 7 9 14 16 17 17 16 13 13 15 13 13 10 7 5 4 6 5 6 5 5 4 2 1 3 4 5 5 6 6 6 5 5 5 5 2 2 3 3 6 8 9 11 12
17 19 19 17 14 15 13 7 11 12 18 18 20 17 13 12 10 8 10 7 9 8 7 5 7 5 7 7 11 9 6 5 5 4 5 7 8 7 7 6 4 4 5 4 1 2 3 4 5 7 9 11 12 12
5 14 16 14 14 17 20 18 18 17 21 21 21 17 15 17 15 14 11 8 5 4 5 9 8 16 17 15 12 10 10 9 10 7 6 6 6 5 5 5 7 6 2 2 2 2 4 6 8 9 8 9 11 14
20 19 16 11 12 19 13 16 18 15 21 19 16 15 15 19 18 16 13 10 8 2 8 17 23 19 17 15 13 11 11 11 10 5 5 7 9 8 7 5 3 3 3 3 3 3 3 4 5 8 11 14 16 18
13 13 12 12 10 16 14 14 19 20 21 22 20 20 22 16 15 15 14 13 5 23 32 27 21 18 16 14 12 11 10 10 7 7 7 7 7 5 4 4 4 3 3 3 4 5 7 9 11 13 16 19 21 24
15 13 15 12 17 22 17 19 16 17 20 18 15 15 15 15 16 19 17 15 26 28 25 21 18 15 13 11 10 7 8 7 5 4 4 4 2 2 3 4 6 6 7 8 8 10 12 14 17 19 21 24 26 28
19 17 16 19 16 13 21 19 13 11 8 11 10 13 13 15 17 13 18 23 23 21 18 14 13 10 9 10 10 8 6 6 4 3 2 2 1 2 3 4 6 8 10 12 14 15 17 19 21 23 25 27 28 30
10 10 12 8 9 13 12 12 14 13 11 10 9 12 12 12 11 13 16 15 15 14 11 8 7 6 5 5 4 4 4 3 4 5 5 6 7 8 9 10 11 13 14 16 17 19 21 23 24 27 29 31 33 34
8 10 11 12 10 13 15 14 14 16 15 9 10 9 7 6 6 9 9 10 10 8 6 5 5 4 3 2 2 3 4 5 6 7 8 9 10 12 13 15 16 18 19 21 22 23 25 26 28 30 33 34 36 37
10 7 7 10 13 12 16 17 15 15 11 11 9 8 7 4 3 4 8 8 8 6 4 3 1 1 2 4 6 7 9 10 11 12 13 13 14 15 16 17 19 20 21 23 25 26 28 29 30 32 34 37 39 40
15 15 19 20 21 19 19 17 14 12 11 7 6 4 2 1 1 5 7 6 5 4 3 3 5 6 8 9 10 11 12 12 13 13 14 14 15 16 18 20 21 22 23 24 25 27 29 31 33 34 34 35 37 38
24 24 22 21 19 17 15 13 10 8 7 5 4 3 4 2 5 5 7 6 6 6 6 7 9 9 10 10 11 11 10 10 11 13 16 17 19 19 20 20 20 22 25 27 28 29 29 30 31 33 33 32 32 34
27 23 19 15 14 14 15 14 12 10 8 6 6 5 6 5 4 3 5 6 7 7 8 8 8 9 8 7 8 9 11 13 15 16 17 17 18 19 20 22 23 25 26 26 26 27 28 29 28 28 29 29 30 31
22 18 15 13 14 17 14 13 11 11 9 9 9 8 7 5 4 4 5 6 6 7 7 5 4 4 6 8 10 12 14 14 15 15 16 18 19 20 21 22 22 21 21 22 24 25 26 26 27 27 27 27 28 29
20 15 13 14 16 14 12 11 10 10 10 10 10 9 9 8 6 5 4 4 4 3 3 4 5 8 10 12 14 14 14 14 15 17 18 18 19 20 19 18 18 18 19 20 21 21 22 23 23 24 25 25 26 27
16 14 13 13 12 11 10 9 9 10 10 11 11 10 6 3 3 4 4 4 4 4 5 7 9 11 12 12 12 13 14 16 16 16 17 18 17 16 16 17 16 17 18 18 20 21 22 23 24 25 25 26 26 26
13 13 11 10 10 8 9 9 9 10 11 10 7 5 4 5 5 6 5 4 4 7 8 9 11 11 11 12 14 14 14 15 15 16 16 15 13 14 15 15 15 16 17 19 20 21 22 23 24 25 26 26 26 26
Wind_Direction
52 71 98 118 136 148 159 169 176 165 174 178 179 185 189 193 197 195 201 202 206 209 197 205 208 212 210 210 207 208 203 209 209 216 212 218 222 220 226 231 244 228 213 218 226 231 246 251 254 250 281 285 284 278
67 96 118 124 131 145 157 163 163 168 167 169 174 182 190 189 187 195 199 203 201 210 218 196 196 206 221 231 217 218 226 227 220 217 221 218 223 228 231 229 245 234 228 228 233 240 247 255 266 272 280 285 276 272
63 87 125 138 144 148 156 150 149 155 156 166 175 180 177 182 191 199 201 211 207 207 217 216 165 196 204 209 204 216 221 226 228 229 224 227 224 219 219 232 232 252 235 237 244 250 255 262 270 273 279 281 273 254
87 88 98 117 117 119 128 133 140 151 160 162 166 173 177 184 189 195 202 197 209 208 223 224 220 191 184 200 198 197 206 206 200 209 209 214 224 227 230 234 234 236 239 238 247 249 256 262 274 278 277 266 258 236
96 102 110 120 117 133 135 142 149 152 156 157 161 171 179 180 186 198 209 199 215 202 224 228 226 186 195 197 201 206 203 204 211 208 215 223 225 228 235 242 242 239 240 240 250 260 265 273 280 274 266 256 248 237
103 105 111 118 123 130 137 145 150 149 147 153 161 168 178 188 195 197 200 201 186 185 214 246 226 218 197 198 203 207 210 217 210 211 224 226 222 232 237 241 241 241 242 247 252 266 268 274 276 254 252 243 234 231
94 103 118 130 129 127 140 142 145 150 156 161 153 155 147 174 182 190 193 183 196 200 204 190 198 198 200 204 210 215 217 220 219 228 236 233 230 234 240 243 246 247 242 247 253 254 264 264 264 255 243 236 231 232
95 100 103 109 123 134 143 138 131 137 139 143 144 133 139 132 148 164 190 195 196 134 173 177 189 183 191 202 207 218 220 219 218 230 231 230 233 240 249 246 241 241 248 246 246 263 256 251 250 255 243 238 236 239
95 107 109 109 108 119 127 140 144 138 143 144 139 150 146 153 144 147 164 192 210 190 194 193 184 156 165 184 197 212 215 217 219 227 224 226 227 232 243 255 259 255 243 247 257 259 255 250 246 247 245 245 243 241
102 101 99 105 110 112 122 131 141 142 142 149 153 155 153 146 149 163 184 196 226 217 206 187 187 135 139 142 152 196 207 208 211 220 226 229 236 236 242 239 246 244 256 252 251 254 253 245 243 248 249 246 245 244
111 109 109 113 113 112 113 125 136 139 140 141 146 150 161 154 169 186 192 213 224 221 231 210 217 184 194 222 186 225 211 254 233 216 216 232 239 241 243 246 250 255 253 242 250 247 235 243 252 253 248 244 241 243
123 120 119 122 123 119 121 125 129 127 128 112 138 141 143 150 150 172 197 208 218 211 221 225 217 217 229 238 251 255 216 210 232 196 204 231 234 236 242 251 257 246 234 239 233 228 231 242 238 238 236 238 242 245
132 132 127 124 122 123 132 130 146 145 137 136 137 150 150 179 180 193 188 195 197 206 219 216 206 193 215 219 251 242 234 238 221 189 189 208 217 225 231 235 234 229 227 215 222 234 235 243 247 238 242 246 241 248
132 137 139 139 142 147 156 152 151 135 133 150 169 180 207 184 171 151 148 164 173 180 187 186 179 167 170 165 174 196 162 155 213 340 355 30 199 188 196 208 219 241 244 249 242 240 248 250 256 252 241 240 243 242
147 152 157 159 160 164 171 179 179 178 360 115 106 77 67 85 108 120 137 137 136 144 149 151 151 138 146 135 135 129 142 78 63 17 341 305 241 228 222 226 236 232 235 232 228 223 219 238 243 243 244 247 234 233
165 171 174 170 158 170 168 150 108 12 66 43 67 104 92 106 106 115 117 125 133 137 148 140 115 121 113 112 123 89 97 74 20 27 22 33 149 181 180 192 203 200 206 221 243 257 259 240 246 239 235 235 238 254
119 135 142 150 162 164 166 189 206 77 64 78 75 76 81 78 79 87 125 135 138 154 139 110 112 100 110 93 84 78 80 57 58 127 117 132 142 156 172 191 210 200 215 244 246 242 190 209 218 227 245 249 263 269
130 131 131 141 152 155 160 175 88 82 83 78 74 68 66 71 71 74 85 134 157 155 151 118 107 116 82 83 91 100 110 105 110 107 149 148 143 141 148 158 184 198 172 170 115 116 160 212 234 247 256 266 270 261
151 152 117 135 135 143 122 91 98 89 77 79 75 73 70 66 65 68 66 80 115 150 152 110 82 90 96 104 104 105 101 104 107 107 140 152 149 138 139 139 146 144 104 77 118 195 229 244 253 259 259 260 266 277
120 137 149 106 94 97 87 99 95 95 88 80 76 75 70 62 53 50 49 56 59 100 100 91 91 92 96 97 93 92 90 86 79 77 122 129 126 117 124 124 130 135 143 158 189 214 224 241 259 265 270 273 275 278
107 99 85 76 99 115 111 118 107 101 92 85 80 72 71 72 63 58 56 61 69 95 94 88 85 84 83 84 82 77 84 81 88 94 106 121 131 138 157 165 169 192 216 239 250 263 271 272 274 278 281 284 285 285
97 86 88 115 95 91 99 107 107 104 104 96 84 75 71 65 62 60 62 66 89 92 91 91 88 84 83 88 87 96 94 88 91 102 115 122 135 187 228 247 242 241 249 260 270 278 282 283 282 282 283 284 286 287
99 123 124 103 85 96 105 110 111 106 108 94 81 74 68 66 66 76 84 87 93 95 94 95 91 84 75 68 57 46 47 58 41 28 30 11 337 313 303 295 289 287 288 289 289 289 288 289 289 291 292 293 293 293
166 116 75 73 84 111 120 118 116 108 106 106 99 95 86 86 84 84 91 96 99 97 95 93 88 80 68 56 30 13 0 351 343 339 333 325 319 312 307 304 302 301 300 300 300 299 298 297 297 297 297 297 297 297
97 75 89 90 94 110 111 108 110 111 111 104 96 87 88 91 97 106 111 115 112 114 113 106 95 82 69 31 3 353 351 351 341 329 323 316 311 308 308 307 306 305 305 305 306 306 306 306 305 305 305 305 305 305
81 63 92 104 104 102 110 106 104 100 101 91 96 99 95 84 80 133 149 146 141 144 150 151 158 269 305 310 314 316 317 316 316 315 317 317 316 315 314 313 313 312 312 311 311 310 310 310 311 310 310 309 309 309
92 91 97 103 106 108 106 103 101 98 91 86 94 87 58 56 257 189 191 186 190 203 221 253 277 294 302 307 309 310 311 312 313 314 315 316 317 317 316 316 315 315 315 315 315 315 315 314 314 314 314 314 314 314
118 112 108 105 104 99 101 100 93 76 72 58 47 26 358 330 309 234 221 235 252 264 276 288 295 301 305 308 310 314 317 320 320 320 320 318 316 317 317 319 320 321 320 319 319 318 318 319 319 319 320 322 323 322
114 114 109 110 106 99 87 79 76 70 56 42 23 7 347 336 324 255 254 266 273 278 285 293 300 306 309 315 319 320 320 320 318 318 320 323 324 325 324 323 323 323 323 323 324 324 324 324 326 328 329 330 332 334
110 105 106 100 86 81 75 65 55 41 29 16 5 356 350 347 325 294 279 279 282 291 299 301 307 315 317 318 318 317 319 322 326 326 326 325 324 323 324 324 325 327 328 329 330 332 333 334 335 336 337 340 341 343
107 104 94 83 79 71 59 46 33 21 10 358 350 341 329 317 305 303 300 301 304 309 313 318 322 321 322 323 322 323 324 324 323 324 324 324 325 326 328 330 332 334 337 339 340 342 344 345 345 345 345 345 345 348
106 97 83 75 73 63 46 30 15 4 353 343 335 331 332 332 337 330 323 318 314 314 320 316 314 315 316 317 321 323 322 324 326 326 326 329 331 333 335 338 340 341 343 347 350 352 354 355 355 354 354 353 352 350
101 90 79 68 55 42 22 6 355 346 340 336 345 337 313 312 312 313 311 306 308 308 310 314 316 317 320 322 323 324 325 327 328 329 331 332 334 338 341 344 346 348 351 352 353 354 355 356 357 358 359 358 358 356
Height
2719 2716 2715 2716 2720 2727 2735 2745 2754 2765 2781 2797 2813 2828 2842 2854 2865 2876 2886 2899 2909 2916 2924 2926 2936 2941 2948 2958 2968 2977 2993 2996 3001 3003 3006 3011 3013 3016 3020 3022 3024 3025 3027 3028 3031 3032 3033 3035 3038 3039 3038 3037 3037 3037
2727 2725 2724 2727 2732 2738 2744 2752 2761 2774 2787 2802 2817 2831 2842 2853 2865 2875 2885 2896 2906 2915 2918 2919 2927 2936 2945 2955 2967 2975 2981 2987 2991 2997 2999 3004 3006 3009 3013 3014 3019 3020 3020 3022 3024 3023 3026 3028 3030 3031 3031 3031 3031 3031
2735 2732 2733 2737 2741 2746 2752 2760 2770 2783 2795 2809 2821 2832 2844 2856 2866 2876 2887 2898 2906 2914 2919 2921 2922 2932 2941 2949 2959 2967 2974 2979 2981 2987 2993 2997 2998 3003 3003 3003 3010 3013 3014 3015 3018 3019 3021 3022 3024 3024 3024 3024 3025 3025
2747 2744 2744 2746 2751 2757 2763 2771 2781 2793 2804 2815 2825 2836 2848 2859 2869 2880 2887 2897 2906 2917 2917 2919 2919 2929 2936 2943 2949 2958 2966 2974 2978 2981 2984 2988 2991 2995 2997 3002 3002 3007 3008 3008 3009 3013 3014 3015 3016 3018 3017 3018 3019 3019
2758 2757 2758 2761 2765 2770 2776 2784 2792 2802 2811 2821 2832 2843 2853 2864 2872 2881 2890 2898 2905 2916 2915 2917 2921 2924 2934 2939 2945 2954 2960 2966 2972 2976 2976 2981 2985 2991 2991 2993 2991 2996 2999 3001 3001 3007 3008 3010 3012 3011 3011 3012 3014 3015
2768 2769 2770 2773 2776 2781 2787 2794 2802 2810 2819 2829 2839 2849 2858 2865 2872 2881 2888 2892 2901 2912 2913 2913 2920 2926 2931 2937 2943 2950 2955 2961 2965 2967 2971 2974 2979 2984 2983 2980 2984 2989 2993 2996 2998 3001 3002 3003 3004 3003 3004 3006 3008 3011
2779 2780 2782 2785 2788 2793 2798 2804 2811 2820 2828 2836 2845 2852 2859 2863 2872 2881 2888 2897 2903 2909 2912 2915 2920 2924 2928 2933 2938 2944 2949 2954 2959 2963 2964 2969 2973 2975 2972 2969 2977 2981 2986 2989 2992 2993 2995 2995 2996 2997 2999 3000 3002 3005
2792 2792 2794 2796 2799 2802 2807 2813 2819 2826 2834 2842 2849 2855 2862 2870 2880 2888 2892 2896 2901 2905 2911 2915 2917 2922 2925 2929 2934 2939 2942 2947 2952 2954 2957 2960 2967 2967 2960 2962 2970 2975 2979 2982 2984 2986 2987 2988 2989 2991 2992 2994 2996 2997
2802 2803 2805 2808 2809 2812 2815 2819 2827 2834 2842 2849 2855 2862 2868 2877 2884 2889 2895 2900 2904 2908 2909 2911 2911 2915 2921 2925 2930 2934 2938 2941 2944 2944 2949 2956 2956 2952 2952 2958 2963 2967 2971 2972 2975 2979 2979 2981 2981 2983 2986 2987 2989 2990
2812 2814 2815 2817 2819 2821 2824 2828 2835 2841 2847 2853 2860 2866 2873 2880 2884 2891 2899 2902 2904 2906 2908 2907 2910 2911 2918 2922 2926 2932 2930 2934 2932 2938 2944 2943 2940 2946 2949 2954 2958 2961 2964 2965 2967 2971 2971 2974 2975 2977 2978 2980 2981 2983
2821 2823 2825 2827 2828 2830 2832 2836 2843 2848 2853 2859 2865 2870 2874 2882 2890 2896 2901 2904 2904 2906 2907 2906 2910 2912 2916 2919 2923 2926 2927 2926 2927 2931 2937 2934 2933 2938 2943 2947 2951 2955 2956 2958 2958 2961 2964 2966 2968 2969 2971 2972 2973 2974
2830 2832 2834 2836 2839 2841 2843 2846 2851 2857 2860 2866 2870 2876 2880 2887 2893 2898 2900 2902 2900 2902 2901 2904 2909 2912 2914 2916 2921 2923 2925 2926 2924 2923 2928 2925 2929 2933 2936 2939 2940 2943 2945 2947 2950 2952 2954 2956 2959 2961 2962 2964 2965 2966
2837 2840 2842 2844 2847 2850 2853 2855 2861 2865 2868 2872 2877 2881 2884 2887 2889 2889 2892 2894 2893 2892 2893 2898 2902 2907 2910 2916 2919 2920 2919 2919 2919 2921 2919 2919 2923 2926 2929 2932 2934 2936 2938 2938 2942 2943 2945 2949 2952 2954 2955 2956 2954 2956
2845 2848 2850 2852 2854 2857 2860 2863 2864 2868 2873 2877 2878 2880 2878 2878 2878 2879 2882 2886 2887 2890 2893 2898 2901 2905 2908 2913 2916 2917 2918 2919 2920 2920 2920 2918 2919 2921 2924 2926 2928 2929 2929 2930 2936 2937 2940 2942 2944 2946 2947 2949 2951 2951
2853 2854 2855 2858 2860 2862 2865 2868 2869 2871 2872 2871 2873 2875 2877 2877 2877 2879 2881 2883 2885 2888 2892 2897 2900 2903 2907 2910 2912 2915 2917 2918 2921 2923 2921 2917 2918 2921 2923 2924 2926 2927 2929 2931 2932 2934 2935 2937 2939 2941 2943 2945 2946 2946
2855 2857 2858 2860 2863 2867 2869 2870 2872 2874 2873 2873 2875 2879 2879 2880 2880 2880 2881 2884 2886 2890 2894 2896 2899 2904 2907 2910 2913 2915 2918 2921 2923 2921 2920 2919 2920 2921 2923 2925 2926 2928 2929 2930 2930 2931 2933 2934 2935 2937 2938 2940 2941 2943
2859 2861 2863 2866 2869 2871 2874 2876 2878 2875 2878 2881 2883 2883 2883 2884 2884 2886 2888 2890 2893 2895 2896 2899 2902 2906 2909 2910 2914 2917 2920 2922 2921 2921 2920 2921 2921 2923 2924 2925 2926 2927 2927 2928 2928 2929 2931 2933 2934 2936 2938 2939 2940 2941
2865 2867 2869 2872 2874 2876 2879 2880 2879 2883 2885 2887 2887 2889 2889 2890 2890 2891 2892 2893 2895 2897 2899 2900 2903 2906 2908 2914 2918 2920 2920 2920 2920 2921 2921 2921 2921 2922 2924 2925 2926 2927 2927 2928 2929 2929 2931 2933 2934 2935 2937 2937 2937 2939
2869 2872 2876 2877 2879 2880 2881 2883 2884 2887 2891 2892 2893 2894 2894 2894 2895 2895 2896 2897 2898 2898 2901 2902 2906 2910 2914 2918 2920 2921 2920 2920 2921 2922 2922 2922 2923 2923 2924 2925 2926 2927 2928 2929 2930 2931 2932 2933 2933 2935 2935 2935 2935 2936
2874 2877 2881 2882 2882 2880 2884 2890 2890 2892 2897 2899 2899 2899 2898 2897 2899 2899 2899 2899 2900 2901 2902 2909 2914 2918 2920 2921 2922 2922 2922 2922 2922 2923 2923 2923 2924 2926 2927 2928 2928 2929 2929 2930 2931 2932 2932 2932 2933 2933 2932 2932 2932 2932
2878 2880 2882 2883 2885 2886 2888 2892 2895 2899 2901 2903 2904 2904 2903 2906 2905 2903 2903 2903 2902 2900 2906 2915 2919 2921 2922 2923 2923 2924 2924 2924 2925 2925 2926 2927 2927 2928 2929 2929 2929 2930 2930 2930 2931 2931 2931 2930 2930 2929 2929 2928 2927 2926
2881 2883 2885 2889 2889 2889 2894 2898 2901 2903 2906 2908 2909 2909 2909 2909 2909 2907 2909 2906 2906 2913 2917 2921 2923 2925 2926 2926 2926 2927 2927 2927 2927 2928 2928 2928 2927 2928 2929 2929 2929 2929 2929 2929 2929 2928 2927 2926 2925 2924 2923 2922 2920 2918
2890 2893 2893 2893 2894 2899 2905 2905 2906 2906 2909 2911 2912 2912 2913 2913 2913 2914 2915 2916 2918 2921 2924 2926 2927 2929 2929 2929 2929 2929 2929 2929 2929 2928 2928 2928 2928 2929 2929 2928 2928 2927 2926 2926 2925 2923 2922 2921 2919 2918 2916 2913 2911 2908
2897 2897 2896 2897 2900 2904 2908 2909 2910 2911 2914 2915 2916 2917 2918 2918 2920 2920 2920 2922 2924 2926 2928 2929 2930 2930 2931 2931 2931 2930 2930 2929 2929 2928 2928 2928 2927 2927 2926 2925 2924 2923 2922 2920 2919 2917 2916 2914 2912 2909 2907 2904 2901 2898
2899 2900 2904 2904 2907 2910 2911 2913 2915 2916 2917 2919 2920 2921 2922 2923 2924 2924 2925 2926 2927 2928 2929 2930 2931 2931 2931 2931 2931 2930 2929 2929 2928 2928 2927 2926 2925 2924 2923 2921 2920 2918 2917 2915 2913 2911 2908 2906 2903 2900 2897 2893 2890 2886
2898 2902 2906 2908 2910 2913 2914 2917 2919 2920 2921 2922 2924 2925 2926 2926 2927 2928 2928 2928 2929 2929 2929 2930 2930 2930 2930 2929 2929 2928 2927 2926 2925 2924 2923 2922 2921 2919 2918 2916 2914 2913 2911 2909 2906 2904 2901 2898 2894 2891 2887 2882 2878 2874
2902 2908 2910 2911 2913 2916 2918 2920 2922 2923 2924 2926 2926 2927 2926 2926 2927 2928 2928 2929 2929 2929 2929 2929 2930 2929 2928 2928 2927 2926 2925 2924 2923 2922 2920 2919 2917 2915 2914 2912 2909 2907 2904 2902 2899 2896 2893 2889 2885 2881 2877 2872 2867 2862
2907 2912 2915 2917 2918 2920 2921 2922 2923 2924 2926 2927 2927 2927 2927 2927 2928 2927 2927 2928 2928 2928 2928 2928 2927 2927 2926 2925 2924 2923 2922 2921 2920 2919 2917 2915 2913 2911 2909 2907 2904 2901 2899 2896 2892 2889 2885 2881 2877 2872 2868 2863 2859 2853
2911 2915 2918 2920 2921 2922 2922 2924 2925 2926 2927 2927 2927 2926 2927 2926 2926 2926 2926 2926 2926 2926 2926 2926 2925 2924 2923 2923 2922 2921 2920 2918 2917 2915 2913 2911 2909 2907 2905 2902 2899 2896 2892 2889 2885 2882 2878 2874 2869 2865 2861 2856 2851 2846
2916 2918 2920 2921 2922 2922 2924 2925 2926 2926 2926 2927 2926 2925 2925 2924 2924 2924 2924 2924 2924 2923 2923 2923 2923 2922 2921 2921 2920 2918 2917 2915 2913 2912 2909 2907 2905 2903 2900 2897 2894 2891 2888 2885 2881 2877 2872 2868 2863 2859 2855 2850 2846 2840
2917 2920 2921 2922 2922 2924 2925 2926 2926 2926 2926 2926 2925 2924 2924 2923 2922 2922 2922 2922 2922 2922 2921 2921 2920 2920 2919 2917 2916 2915 2913 2912 2910 2908 2906 2903 2901 2898 2895 2893 2890 2887 2884 2881 2877 2874 2870 2865 2861 2856 2852 2847 2842 2837
2920 2922 2923 2923 2924 2926 2927 2927 2926 2926 2926 2925 2924 2922 2922 2921 2922 2922 2921 2921 2920 2920 2919 2919 2918 2917 2916 2915 2913 2912 2910 2908 2906 2904 2902 2899 2896 2894 2892 2889 2887 2884 2881 2878 2874 2870 2866 2862 2857 2853 2848 2843 2838 2833
2922 2923 2924 2925 2926 2927 2927 2927 2926 2925 2924 2923 2922 2922 2921 2921 2921 2921 2920 2919 2919 2919 2918 2917 2916 2915 2913 2912 2910 2908 2906 2905 2902 2900 2898 2896 2894 2891 2889 2887 2884 2881 2878 2875 2871 2868 2864 2860 2855 2851 2846 2841 2836 2831